Content
SEND FEEDBACK

Daily
Averages
Monthly
Summary
United States of America

MAURICEVILLE, TEXAS


Home > North America > United States > Texas
Elevation: 6 meters     Latitude: 30 14N     Longitude: 093 44W

WEATHER
 
SELECT A DAY
Number of Records: 108,109;   Date Range: 8/25/05 - 7/27/14
 
SHARE

PRINT THIS DATA

[ ← Previous Day ]
WEATHER ALMANAC - 1 OCTOBER, 2013
[ Next Day → ]
[ °F ]   °C
Weather ElementAverageHighLow
Temperature25.2 °C29.4 °C (12:55 pm)22.2 °C (4:35 am)
Dewpoint23.1 °C24.6 °C (10:15 am)21.7 °C (4:35 am)
Humidity88.2 %97 % (3:55 am)69 % (12:55 pm)
Barometer1014.2 hPa1015.2 hPa (9:55 am)1012.5 hPa (3:15 am)
Wind Speed7.9 km/h20.4 km/h (11:55 am)
Wind Gust29.6 km/h (2:55 pm)
Weather ElementAverage
Visibility14 km
Wind DirectionENE (77.5 °)

Weather ElementTotal
Precipitation---
Cooling Degree Days7.5 (Base 18.3)
Growing Degree Days15.8 (Base 10)
Averaged from 71 records on 1 October, 2013
WEATHER CONDITIONS BREAKOUT
WIND DIRECTION BREAKOUT
WEATHER BY HOUR - 1 OCTOBER, 2013
[ °F ]   °C
Local TimeTemperatureDewpointHumidityBarometerVisibilityWind DirectionWind SpeedGust SpeedPrecipitationEventsConditions
12:35 AM24.3 °C23.1 °C93 %1012.9 hPa16.1 kmCalmScattered Clouds
12:55 AM24 °C23 °C94 %1013.2 hPa16.1 kmCalmScattered Clouds
1:15 AM23.9 °C23 °C95 %1012.9 hPa16.1 kmSouth (190°)5.6 km/hScattered Clouds
1:35 AM24 °C23.1 °C95 %1012.9 hPa16.1 kmSE (130°)5.6 km/hClear
1:55 AM24 °C23.1 °C95 %1012.9 hPa16.1 kmCalmScattered Clouds
2:15 AM23.5 °C22.8 °C96 %1012.9 hPa16.1 kmCalmClear
2:35 AM23.5 °C22.7 °C95 %1012.9 hPa16.1 kmCalmScattered Clouds
2:55 AM22.8 °C22 °C95 %1012.9 hPa11.3 kmCalmClear
3:15 AM23 °C22.3 °C96 %1012.5 hPa8 kmCalmClear
3:35 AM22.7 °C22.1 °C96 %1012.5 hPa3.2 kmCalmClear
3:55 AM22.5 °C22 °C97 %1012.5 hPa4.8 kmCalmScattered Clouds
4:15 AM22.5 °C22 °C97 %1012.5 hPa8 kmCalmScattered Clouds
4:35 AM22.2 °C21.7 °C97 %1012.5 hPa6.4 kmNNE (30°)5.6 km/hClear
4:55 AM22.7 °C22.2 °C97 %1012.5 hPa4.8 kmNE (40°)7.4 km/hClear
5:15 AM22.7 °C22.2 °C97 %1012.5 hPa8 kmNNE (30°)5.6 km/hClear
5:35 AM22.6 °C22.1 °C97 %1012.9 hPa8 kmCalmScattered Clouds
5:55 AM22.5 °C22 °C97 %1013.2 hPa8 kmNNE (30°)5.6 km/hThunderstormMostly Cloudy
6:15 AM22.6 °C22.1 °C97 %1013.5 hPa11.3 kmCalmMostly Cloudy
6:35 AM22.5 °C22 °C97 %1013.5 hPa11.3 kmNNE (30°)5.6 km/hScattered Clouds
6:55 AM22.5 °C22 °C97 %1013.9 hPa11.3 kmCalmClear
7:15 AM22.5 °C22 °C97 %1013.9 hPa11.3 kmNNE (30°)5.6 km/hMostly Cloudy
7:35 AM22.8 °C22.3 °C97 %1014.2 hPa11.3 kmNE (40°)5.6 km/hOvercast
7:55 AM23.1 °C22.6 °C97 %1014.2 hPa8 kmCalmRainRain
8:15 AM23.2 °C22.7 °C97 %1014.2 hPa11.3 kmNNE (30°)5.6 km/hLight Drizzle
8:35 AM23.5 °C23 °C97 %1014.2 hPa11.3 kmCalmClear
8:55 AM23.6 °C23.1 °C97 %1014.6 hPa8 kmENE (60°)7.4 km/hClear
9:15 AM24 °C23.5 °C97 %1014.6 hPa11.3 kmNE (50°)7.4 km/hClear
9:35 AM24.6 °C24 °C96 %1014.9 hPa16.1 kmENE (70°)11.1 km/hClear
9:55 AM25.8 °C24.5 °C92 %1015.2 hPa16.1 kmEast (80°)11.1 km/hClear
10:15 AM26.4 °C24.6 °C90 %1015.2 hPa16.1 kmENE (60°)18.5 km/hScattered Clouds
10:35 AM26.5 °C24.2 °C87 %1015.2 hPa16.1 kmENE (70°)16.7 km/h25.9 km/hMostly Cloudy
10:55 AM27.3 °C23.2 °C78 %1015.2 hPa16.1 kmEast (100°)14.8 km/hScattered Clouds
11:15 AM28.2 °C24.4 °C80 %1014.9 hPa16.1 kmEast (90°)18.5 km/hClear
11:35 AM28.6 °C24.5 °C78 %1015.2 hPa16.1 kmEast (100°)16.7 km/hScattered Clouds
11:55 AM28.4 °C24.3 °C78 %1015.2 hPa16.1 kmESE (120°)20.4 km/h27.8 km/hMostly Cloudy
12:15 PM28.8 °C24.2 °C76 %1015.2 hPa16.1 kmESE (110°)16.7 km/hScattered Clouds
12:35 PM29 °C23.7 °C73 %1015.2 hPa16.1 kmSE (130°)16.7 km/hClear
12:55 PM29.4 °C23.1 °C69 %1014.9 hPa16.1 kmSE (130°)16.7 km/h27.8 km/hClear
1:15 PM28.4 °C23.5 °C75 %1014.9 hPa16.1 kmSE (140°)16.7 km/hClear
1:35 PM27.7 °C23.2 °C76 %1014.6 hPa16.1 kmSSE (150°)16.7 km/h25.9 km/hScattered Clouds
1:55 PM27.9 °C23.6 °C77 %1014.6 hPa16.1 kmSE (130°)14.8 km/hScattered Clouds
2:15 PM27.8 °C23.1 °C75 %1014.2 hPa16.1 kmSE (130°)14.8 km/hMostly Cloudy
2:35 PM27.8 °C23.1 °C75 %1013.9 hPa16.1 kmESE (120°)18.5 km/hThunderstormOvercast
2:55 PM27.5 °C23.5 °C79 %1014.6 hPa16.1 kmSE (140°)16.7 km/h29.6 km/hMostly Cloudy
3:15 PM27.3 °C23.4 °C79 %1014.2 hPa16.1 kmSE (130°)14.8 km/hScattered Clouds
3:35 PM27.3 °C23.8 °C81 %1014.6 hPa16.1 kmSSE (160°)14.8 km/hMostly Cloudy
3:55 PM27.1 °C23.7 °C82 %1014.2 hPa16.1 kmSSE (160°)14.8 km/hThunderstormScattered Clouds
4:15 PM27.1 °C23.6 °C81 %1014.2 hPa16.1 kmSSE (150°)9.3 km/hMostly Cloudy
4:35 PM27 °C23.8 °C83 %1013.9 hPa16.1 kmSE (140°)9.3 km/hMostly Cloudy
4:55 PM27 °C23.5 °C81 %1013.5 hPa16.1 kmSE (140°)9.3 km/hScattered Clouds
5:15 PM27.1 °C23.7 °C82 %1013.2 hPa16.1 kmSE (130°)9.3 km/hScattered Clouds
5:35 PM27.1 °C23.7 °C82 %1013.5 hPa16.1 kmESE (120°)9.3 km/hScattered Clouds
5:55 PM27.1 °C23.7 °C82 %1014.2 hPa16.1 kmSE (130°)9.3 km/hScattered Clouds
6:15 PM26.9 °C23.6 °C82 %1014.2 hPa16.1 kmSE (130°)5.6 km/hScattered Clouds
6:35 PM26.5 °C23.6 °C84 %1014.2 hPa16.1 kmSE (140°)7.4 km/hScattered Clouds
6:55 PM26.1 °C23.5 °C85 %1013.9 hPa16.1 kmCalmClear
7:15 PM25.6 °C23.5 °C88 %1013.9 hPa16.1 kmESE (110°)7.4 km/hClear
7:35 PM25.8 °C23.6 °C88 %1014.2 hPa16.1 kmESE (110°)7.4 km/hMostly Cloudy
7:55 PM26 °C23.6 °C87 %1014.2 hPa16.1 kmESE (120°)7.4 km/hMostly Cloudy
8:15 PM25.7 °C23.6 °C88 %1014.6 hPa16.1 kmESE (120°)5.6 km/hScattered Clouds
8:35 PM25.7 °C23.3 °C87 %1014.6 hPa16.1 kmESE (110°)11.1 km/hMostly Cloudy
8:55 PM25.5 °C23 °C86 %1014.6 hPa16.1 kmESE (110°)7.4 km/hScattered Clouds
9:15 PM25.1 °C22.7 °C86 %1014.9 hPa16.1 kmEast (100°)5.6 km/hClear
9:35 PM24.8 °C22.6 °C87 %1015.2 hPa16.1 kmEast (90°)5.6 km/hClear
9:55 PM24.7 °C22.6 °C88 %1015.2 hPa16.1 kmEast (100°)5.6 km/hClear
10:15 PM24.2 °C22.5 °C90 %1015.2 hPa16.1 kmENE (70°)7.4 km/hClear
10:35 PM24 °C22.3 °C90 %1015.2 hPa16.1 kmCalmClear
10:55 PM24.1 °C22.5 °C91 %1015.2 hPa16.1 kmEast (100°)7.4 km/hClear
11:15 PM24.3 °C22.6 °C90 %1015.2 hPa16.1 kmEast (100°)7.4 km/hClear
11:35 PM24.5 °C22.6 °C89 %1015.2 hPa16.1 kmEast (90°)7.4 km/hClear
11:55 PM24.1 °C22.9 °C93 %1015.2 hPa16.1 kmEast (80°)9.3 km/hScattered Clouds
Hourly data recorded from KORG, located 0 kilometers away from Mauriceville, Texas







STORIES FROM OUR PARTNERS